Location: Unspecified
(0.0000°N, 0.0000°E)
Time: 11:23:50
(UTC+00:00)

Vanguard 3 - Pass Details

Date: 21 November 2019
Orbit: 508 x 3263 km, 33.3° (Epoch: 13 December)

Event Time Altitude Azimuth Distance (km) Brightness Sun altitude
Rises 18:55:00 0° 318° (NW) 6,569 12.1 -16.2°
Reaches altitude 10° 19:01:05 10° 330° (NNW) 5,096 11.3 -17.6°
Maximum altitude 19:11:31 26° 19° (NNE) 3,016 9.7 -20.1°
Enters shadow 19:13:51 24° 39° (NE) 2,887 9.4 -20.6°
